Probability
0 0 0 0 0 0 1 1 1 0 1 0 0 0 0 0 0 0 0 0 1 1 1 0 0 0 0 0 0 0 0 0 0 0 0 0 0 0 0 0 0 0 0
0 0 0 0 0 0 0 0 0 0 1 0 0 0 0 0 0 0 0 0 0 0 0 0 0 0 0 0 0 0 0 0 0 0 0 0 0 0 0 0 0 0 0
0 0 0 0 0 0 0 0 0 0 0 0 0 0 0 0 0 0 0 0 0 0 1 1 1 0 0 0 0 0 0 0 0 0 0 0 0 0 0 0 0 0 0
0 0 0 0 0 0 0 0 0 0 0 0 0 0 0 0 0 0 0 0 0 1 1 1 1 1 0 0 0 0 0 0 0 0 0 0 0 0 0 0 0 0 0
0 0 0 0 0 0 0 0 0 0 0 0 0 0 0 0 0 0 0 0 0 0 0 1 1 1 1 1 1 1 0 0 0 0 0 0 0 0 0 0 0 0 0
0 0 0 0 0 0 0 0 0 0 0 0 0 0 0 0 0 0 0 0 0 0 0 1 1 0 1 2 3 2 1 0 0 0 0 0 0 0 0 0 0 0 0
0 0 0 0 0 0 0 0 0 0 0 0 0 0 0 0 0 0 0 0 0 0 0 0 0 0 0 1 2 2 2 2 2 1 1 1 0 0 0 0 0 0 0
0 0 0 0 0 0 0 0 0 0 0 0 0 0 0 0 0 0 0 0 0 0 0 0 0 0 0 1 1 1 2 3 3 2 2 2 1 0 0 0 0 0 0
0 0 0 0 0 0 0 0 0 0 0 0 0 0 0 0 0 0 0 0 0 0 0 0 0 0 0 1 0 0 1 3 5 3 2 2 1 0 0 0 0 0 0
0 0 0 0 0 0 0 0 0 0 0 0 0 0 0 0 0 0 0 0 0 0 0 0 0 0 0 0 0 0 0 2 6 6 3 1 1 0 0 0 0 0 0
0 0 0 0 0 0 0 0 0 0 0 0 0 0 0 0 0 0 0 0 0 0 0 0 0 0 0 0 0 0 0 1 4 6 5 4 2 1 0 0 0 1 1
0 0 0 0 0 0 0 0 0 0 0 0 0 0 0 0 0 0 0 0 0 0 0 0 0 0 0 0 0 0 0 0 1 3 5 7 8 6 4 2 1 1 2
0 0 0 0 0 0 0 0 0 0 0 0 0 0 0 0 0 0 0 0 0 0 0 0 0 0 0 0 0 0 0 0 0 1 4 8 11 12 9 5 2 2 2
0 0 0 0 0 0 0 0 0 0 0 0 0 0 0 0 0 0 0 0 0 0 0 0 0 0 0 0 0 0 0 0 0 1 3 6 10 12 11 9 6 4 3
0 0 0 0 0 0 0 0 0 0 0 0 0 0 0 0 0 0 0 0 0 0 0 0 0 0 0 0 0 0 0 0 0 0 1 2 5 7 9 10 9 6 4
0 0 0 0 0 0 0 0 0 0 0 0 0 0 0 0 0 0 0 0 0 0 0 0 0 0 0 0 0 0 0 0 0 0 0 0 1 3 4 7 7 5 2
0 0 0 0 0 0 0 0 0 0 0 0 0 0 0 0 0 0 0 0 0 0 0 0 0 0 0 0 0 0 0 0 0 0 0 0 0 0 1 2 3 1 0
0 0 0 0 0 0 0 0 0 0 0 0 0 0 0 0 0 0 0 0 0 0 0 0 0 0 0 0 0 0 0 0 0 0 0 0 0 0 0 0 0 0 0
0 0 0 0 0 0 0 0 0 0 0 0 0 0 0 0 0 0 0 0 0 0 0 0 0 0 0 0 0 0 0 0 0 0 0 0 0 0 0 0 0 0 0
0 0 0 0 0 0 0 0 0 0 0 0 0 0 0 0 0 0 0 0 0 0 0 0 0 0 0 0 0 0 0 0 0 0 0 0 0 0 0 0 0 0 0
0 0 0 0 0 0 0 0 0 0 0 0 0 0 0 0 0 0 0 0 0 0 0 0 0 0 0 0 0 0 0 0 0 0 0 0 0 0 0 0 0 0 0
0 0 0 0 0 0 0 0 0 0 0 0 0 0 0 0 0 0 0 0 0 0 0 0 0 0 0 0 0 0 0 0 0 0 0 0 0 0 0 0 0 0 0
0 0 0 0 0 0 0 0 0 0 0 0 0 0 0 0 0 0 0 0 0 0 0 0 0 0 0 0 0 0 0 0 0 0 0 0 0 0 0 0 0 0 0
0 0 0 0 0 0 0 0 0 0 0 0 0 0 0 0 0 0 0 0 0 0 0 0 0 0 0 0 0 0 0 0 0 0 0 0 0 0 0 0 0 0 0
0 0 0 0 0 0 0 0 0 0 0 0 0 0 0 0 0 0 0 0 0 0 0 0 0 0 0 0 0 0 0 0 0 0 0 0 0 0 0 0 0 0 0
0 0 0 0 0 0 0 0 0 0 0 0 0 0 0 0 0 0 0 0 0 0 0 0 0 0 0 0 0 0 0 0 0 0 0 0 0 0 0 0 0 0 0
Wind_Speed
2 2 2 2 2 2 2 3 3 3 3 4 3 3 3 3 3 3 3 10 12 13 14 14 13 13 12 11 10 10 10 11 11 11 11 11 11 11 11 11 10 10 10
1 2 2 2 2 2 3 3 4 3 3 3 3 3 3 3 3 2 3 6 12 13 13 14 14 14 13 12 11 11 11 11 11 12 12 11 11 11 11 11 10 10 9
2 1 2 2 2 2 3 2 3 2 3 3 3 3 2 2 3 2 3 3 5 10 13 14 14 14 14 13 13 12 12 12 12 12 12 12 12 11 11 11 10 10 9
3 2 1 2 3 2 2 2 2 2 3 3 2 3 2 2 2 2 3 3 4 5 9 13 13 14 14 14 14 13 13 13 12 12 12 12 12 11 11 11 10 10 9
4 2 2 2 2 1 1 2 2 2 2 3 3 3 3 2 2 2 4 4 4 4 4 9 13 13 13 15 15 15 15 14 14 14 13 13 12 11 11 11 11 10 9
4 3 2 3 3 1 2 2 2 2 2 2 3 3 3 3 2 2 4 4 4 5 6 6 6 9 13 14 15 16 16 16 16 15 15 14 13 12 12 12 11 11 10
4 3 3 3 3 2 2 2 1 2 2 1 0 2 2 3 3 3 3 3 5 5 5 6 5 5 6 13 14 15 16 17 17 17 16 15 14 13 13 13 12 11 11
4 3 3 3 3 2 3 2 1 1 1 1 1 0 2 2 2 4 4 4 5 4 6 8 6 7 6 5 9 15 15 16 17 18 17 16 15 14 14 14 13 12 11
4 3 3 3 3 2 2 3 1 1 1 1 1 2 1 2 2 1 3 4 4 4 5 5 7 7 8 6 6 12 15 15 18 19 18 18 17 16 15 15 14 13 12
4 4 3 3 3 2 2 3 2 1 1 1 1 1 2 2 1 2 2 2 4 5 5 6 7 7 7 6 8 11 15 16 17 19 20 19 18 18 17 16 15 14 13
4 4 3 3 3 2 3 3 3 2 1 2 1 1 1 1 2 2 2 2 2 2 3 4 4 5 7 7 7 11 16 17 18 19 20 20 20 19 18 17 16 15 15
3 4 4 3 3 3 3 3 2 2 2 2 2 2 2 2 2 2 3 2 2 2 3 3 4 5 5 6 10 14 16 17 18 18 18 18 19 20 20 19 18 17 16
3 4 4 3 3 3 3 2 2 2 2 2 2 2 2 3 2 2 2 2 2 2 2 2 4 4 5 5 7 14 16 18 18 18 17 17 17 18 19 20 19 19 17
3 4 4 4 4 4 3 2 2 2 2 2 3 3 2 3 3 3 3 2 2 2 2 4 2 4 4 5 8 12 10 17 18 19 18 18 17 17 18 18 19 19 18
3 4 4 4 4 3 3 2 2 3 3 2 3 3 2 3 3 3 3 3 3 3 3 3 3 3 3 4 7 7 7 13 17 18 18 18 18 17 17 17 16 16 15
3 3 4 4 3 3 3 2 2 3 3 3 2 3 3 2 3 3 3 3 4 4 4 3 3 2 2 3 6 6 8 12 16 17 18 18 18 18 17 17 16 15 15
2 3 3 3 3 4 3 3 3 3 3 3 3 3 4 3 3 3 3 3 4 4 5 4 3 2 3 4 3 4 5 6 8 16 17 18 18 18 18 17 17 16 15
2 2 2 3 3 3 3 3 3 3 3 4 4 4 4 3 3 3 2 3 3 4 5 5 3 3 4 4 4 5 5 6 6 12 17 18 18 18 17 17 17 17 16
2 3 2 3 3 3 3 3 3 3 3 4 4 4 4 3 3 3 3 3 3 3 4 4 4 3 3 3 3 4 4 4 6 8 13 16 17 17 17 17 17 17 17
2 3 3 3 3 3 3 3 3 3 4 4 4 4 4 4 4 4 3 3 3 3 3 3 3 3 3 2 3 3 3 4 5 5 7 9 13 16 17 17 18 17 17
3 3 3 4 4 4 3 3 3 4 4 5 5 5 5 6 6 4 3 3 3 3 3 3 3 3 3 2 4 3 4 3 4 4 5 6 7 8 10 14 17 18 18
3 3 3 4 4 4 6 7 4 3 4 4 5 6 6 5 6 7 7 6 5 4 4 4 4 4 5 4 3 4 4 3 4 4 5 5 6 7 7 8 13 17 19
4 4 4 4 5 7 9 8 7 3 4 4 5 5 5 5 5 4 6 7 6 7 7 5 6 6 5 5 5 5 5 4 4 3 4 4 5 6 5 7 14 18 19
4 4 5 5 5 7 9 8 7 3 3 4 4 4 4 5 5 5 4 4 4 5 5 5 6 6 6 5 6 6 5 3 2 2 3 4 4 4 4 5 12 16 18
5 5 5 5 5 7 10 9 7 2 3 5 5 4 4 4 8 7 4 5 6 5 6 8 9 9 9 9 7 4 4 4 3 3 3 3 3 2 3 4 7 13 15
5 5 5 5 6 7 9 9 7 2 3 4 4 4 6 6 8 8 4 4 6 6 5 5 5 6 6 6 9 7 6 5 3 3 4 4 3 3 2 3 4 5 8
Wind_Direction
276 273 272 269 264 254 241 231 225 226 225 223 223 224 223 219 229 231 229 219 214 206 196 188 183 180 180 180 176 173 168 163 162 159 157 153 150 146 145 143 142 139 136
294 284 282 275 267 254 241 228 225 224 230 227 231 230 233 222 221 231 224 222 215 206 199 194 187 184 183 184 181 178 174 170 166 164 160 157 154 152 152 152 150 147 144
340 315 291 286 279 267 256 245 237 228 231 228 233 239 233 224 207 221 226 218 215 210 205 199 191 187 187 186 185 181 177 174 171 169 167 164 160 159 159 158 157 154 151
357 347 322 302 297 287 266 253 233 229 234 228 230 240 232 221 201 212 227 227 215 211 212 206 195 191 191 189 188 184 182 179 177 175 173 169 167 167 168 166 164 162 159
3 358 331 312 310 311 285 276 247 228 236 237 233 238 231 218 216 221 214 222 216 213 209 211 202 194 195 193 191 189 187 185 183 182 179 175 174 175 173 172 172 171 167
356 359 345 340 337 332 313 296 273 250 234 234 250 247 230 220 208 218 219 215 212 216 213 209 202 202 201 196 194 194 192 190 188 187 185 183 182 181 181 180 179 175 174
349 350 349 344 345 335 308 301 287 276 259 209 236 285 269 228 216 221 217 213 216 214 206 207 201 194 203 203 199 197 197 196 193 192 190 189 188 187 186 186 184 181 182
340 343 348 336 337 337 337 333 328 302 277 183 166 226 306 313 251 226 211 216 221 208 207 209 203 197 195 194 203 201 200 199 197 196 195 193 192 191 192 191 190 190 191
335 335 335 335 340 343 329 320 313 259 267 266 191 177 191 241 288 277 227 226 222 211 209 204 203 202 200 195 196 206 203 200 200 200 199 197 196 196 195 195 196 196 196
336 338 339 342 340 338 327 313 326 279 227 249 263 225 213 185 211 310 302 246 229 219 210 209 206 204 201 198 202 202 204 203 203 203 203 201 200 199 198 199 199 200 199
337 337 340 342 336 329 320 315 325 312 252 218 214 223 239 219 195 203 272 296 286 245 218 214 203 201 202 201 204 209 204 204 206 206 205 204 203 202 202 202 203 203 202
328 331 331 336 329 322 314 312 316 316 289 260 238 212 199 202 200 194 230 256 269 267 243 222 209 205 202 202 212 212 206 205 207 208 207 206 204 205 205 205 205 205 204
314 315 326 324 323 320 315 318 327 323 307 290 264 241 223 219 205 194 212 238 256 275 272 243 219 209 210 200 211 215 211 207 207 208 207 206 205 205 206 207 207 206 206
282 297 315 319 322 325 332 332 328 316 320 303 286 268 246 238 217 203 201 204 249 271 262 254 244 219 216 205 210 209 213 209 207 208 207 205 205 206 205 206 207 208 207
297 316 322 324 329 336 340 345 328 316 318 307 292 281 260 248 231 221 210 199 203 240 258 243 235 228 217 213 209 205 209 210 207 207 208 206 205 205 205 205 205 205 203
317 327 334 337 341 342 343 342 323 317 323 311 297 298 286 265 251 234 221 215 206 213 245 248 234 241 243 241 217 211 213 209 209 208 210 209 207 205 204 203 201 200 199
318 328 331 338 339 339 339 344 328 321 322 315 316 308 293 281 263 249 232 218 213 209 240 258 239 237 227 238 235 223 216 209 211 211 211 212 209 206 205 203 200 197 196
314 321 330 335 328 330 332 330 322 326 319 312 308 309 302 298 280 257 238 234 225 217 224 246 248 230 228 227 222 221 221 213 209 212 212 213 211 206 204 203 200 197 195
312 322 323 322 313 313 316 308 306 310 311 307 304 301 297 299 289 275 253 240 237 236 222 231 245 231 232 222 220 226 222 218 215 214 212 213 212 208 204 202 201 198 195
289 300 298 297 292 297 299 294 300 303 306 305 300 295 292 281 272 271 262 247 240 238 232 234 243 240 233 220 204 213 223 214 218 213 210 209 210 209 206 203 201 199 196
276 281 291 296 296 289 276 274 281 289 299 305 305 300 295 292 285 275 263 248 237 237 236 237 242 240 233 211 214 204 219 217 217 204 200 202 200 207 207 208 206 202 197
278 284 287 287 291 286 292 288 277 275 289 296 300 302 300 296 304 308 302 290 258 234 231 232 238 237 237 223 217 212 212 209 225 198 195 207 194 205 206 204 202 200 198
260 273 278 277 277 281 287 292 286 274 280 287 292 298 304 309 314 301 301 303 294 275 248 229 236 240 235 220 209 216 216 209 215 191 181 209 196 209 204 205 198 198 198
251 259 266 269 271 279 285 288 288 281 282 289 291 292 291 299 300 299 293 291 284 277 264 248 238 244 239 227 215 216 210 211 230 212 182 206 194 203 198 200 199 199 198
251 253 257 261 263 276 281 280 276 271 283 294 297 299 297 292 300 308 301 297 296 289 273 264 255 252 248 241 218 201 195 197 218 213 189 193 186 186 197 208 203 197 197
247 258 263 258 253 262 273 273 262 235 271 287 298 301 303 303 306 309 293 288 291 290 289 292 281 269 254 243 222 211 203 203 201 208 189 180 177 168 191 205 201 195 195